Location: Beddau
(51.5575°N, 3.3561°W)
Time: 17:16:54
(UTC+00:00)

USA 308 - Pass Details

Date: 03 March 2021
Orbit: 568 x 576 km, 54.0° (Epoch: 13 April)

Event Time Altitude Azimuth Distance (km) Brightness Sun altitude
Rises 20:04:58 0° 280° (W) 2,778 8.0 -20.4°
Reaches altitude 10° 20:07:15 10° 284° (WNW) 1,878 6.7 -20.8°
Maximum altitude 20:11:30 64° 6° (N) 637 3.1 -21.4°
Enters shadow 20:12:07 56° 50° (NE) 686 3.0 -21.5°
